Regional Weather Roundup
Issued by NWS Bismarck, ND

Home | Current Version | Previous Version | Text Only | Print | Product List | Glossary On
Versions: 1 2 3 4 5 6 7 8 9 10 11 12 13 14 15 16 17 18 19 20 21 22 23 24 25 26 27 28 29 30 31 32 33 34 35 36 37 38 39 40 41 42 43 44 45 46 47 48 49 50
000
ASUS43 KBIS 230502
RWRBIS

NWR BROADCAST TEXT
NATIONAL WEATHER SERVICE BISMARCK ND
1200 AM CDT MON APR 23 2018

NOTE: "FAIR" INDICATES FEW OR NO CLOUDS BELOW 12,000 FEET WITH NO
SIGNIFICANT WEATHER AND/OR OBSTRUCTIONS TO VISIBILITY.


CITY           SKY/WX    TMP DP  RH WIND       PRES   REMARKS
WILLISTON      CLEAR     45  30  55 NE7       30.13R
MINOT          PTCLDY    48  32  53 SW8       30.09S
MINOT AFB      NOT AVBL
BISMARCK       MOCLDY    51  39  63 E8        30.13R
DICKINSON      CLEAR     44  29  55 MISG      30.10S
GARRISON         N/A     40  35  83 CALM      30.11S
HETTINGER ARPT PTCLDY    49  34  56 NE12      30.11F
JAMESTOWN      CLEAR     47  37  68 S8        30.13S
CARRINGTON     CLOUDY    50  43  76 SW7       30.14S
LINTON           N/A    N/A N/A N/A S13       30.14R
OAKES            N/A     43  41  93 S10       30.17S
TIOGA          FAIR      45  28  53 N8        30.14F
$$

CITY           SKY/WX    TMP DP  RH WIND       PRES   REMARKS
GRAND FORKS    MOCLDY    49  44  83 S12       30.11S
GRAND FORKS AF NOT AVBL
DEVILS LAKE    FAIR      45  39  79 SW3       30.12R
FARGO          FAIR      49  37  63 S17       30.17S
CANDO          FAIR      43  43 100 S7        30.11S
CAVALIER         N/A     52  41  66 SW8       30.07S
GWINNER          N/A     45  41  87 S13       30.17S
ROLLA          FAIR      41  32  70 SW12      30.09S
WALHALLA       FAIR      54  37  54 SW6       30.07S
$$

CITY           SKY/WX    TMP DP  RH WIND       PRES   REMARKS
ABERDEEN       CLEAR     42  37  82 S12       30.18S
MOBRIDGE       CLEAR     46  38  73 SE8       30.11S
BUFFALO          N/A     50  32  50 NE13      30.04S
RAPID CITY     CLEAR     45  37  73 CALM      30.10R
GLASGOW        PTCLDY    45  29  53 NE13      30.15R
SIDNEY         PTCLDY    45  28  51 N6        30.14R
WOLF POINT     MOCLDY    51  27  39 N14       30.15R
GLENDIVE       PTCLDY    47  29  49 N10       30.13S
MILES CITY     CLOUDY    53  34  48 N12       30.08F
BAKER          CLEAR     41  32  70 E3        30.11S
$$

CITY           SKY/WX    TMP DP  RH WIND       PRES   REMARKS
BILLINGS       CLOUDY    54  30  40 N14       30.07S
GREAT FALLS    CLOUDY    44  24  45 NE14      30.21R
$$





USA.gov is the U.S. government's official web portal to all federal, state and local government web resources and services.